GALAXY 33

Last updated on Wed Dec 14 2022 00:02:50 GMT+0000 (Coordinated Universal Time)

1 54026U 22128A 22347.52603361 .00000097 00000+0 00000+0 0 9990 2 54026 0.0153 50.3018 0002037 210.9048 237.3560 1.00271231 903

Satellite not in orbit

GALAXY 33